Location: Unspecified
(0.0000°N, 0.0000°E)
Time: 19:42:46
(UTC+01:00)

ASC 2 Rocket - Visible Passes

Search period start: 21 December 2014 00:00
Search period end: 31 December 2014 00:00
Orbit: 556 x 2348 km, 24.0° (Epoch: 20 December)

Date Brightness Start Highest point End Pass type
(mag) Time Alt. Az. Time Alt. Az. Time Alt. Az.
21 Dec 6.7 02:11:49 35° SE 02:11:49 35° SE 02:18:32 10° SE visible
21 Dec 6.7 04:06:37 25° SW 04:11:30 31° SSW 04:21:38 10° SE visible
21 Dec 7.0 06:10:52 10° SW 06:18:09 18° S 06:24:10 10° SSE visible
21 Dec 6.0 20:39:44 10° NNW 20:45:52 24° NNE 20:45:52 24° NNE visible
22 Dec 7.4 01:09:24 16° ESE 01:09:24 16° ESE 01:11:26 10° ESE visible
22 Dec 6.5 03:04:12 39° SSW 03:04:12 39° SSW 03:15:26 10° SE visible
22 Dec 7.0 05:00:38 10° WSW 05:10:20 22° SSW 05:18:27 10° SSE visible
22 Dec 6.1 19:35:31 10° NNW 19:39:45 15° NNE 19:44:22 11° NE visible
22 Dec 6.1 21:35:28 10° NW 21:39:15 27° NNW 21:39:15 27° NNW visible
23 Dec 6.8 02:01:45 33° SSE 02:01:45 33° SSE 02:08:43 10° SE visible
23 Dec 6.9 03:56:33 22° SW 04:02:12 28° SSW 04:12:21 10° SE visible
23 Dec 7.1 06:01:25 10° SW 06:09:26 19° S 06:16:03 10° SE visible
23 Dec 5.7 20:30:39 10° NNW 20:37:20 28° NNE 20:37:51 28° NNE visible
23 Dec 6.8 22:31:39 10° NW 22:32:45 15° NW 22:32:45 15° NW visible
24 Dec 7.4 00:59:17 16° SE 00:59:17 16° SE 01:01:27 10° SE visible
24 Dec 6.7 02:54:05 34° SSW 02:54:05 34° SSW 03:05:47 10° SE visible
24 Dec 7.1 04:51:37 10° SW 05:01:23 22° S 05:09:46 10° SE visible
24 Dec 5.9 19:26:31 10° NNW 19:30:51 17° NNE 19:36:15 10° ENE visible
24 Dec 5.6 21:26:21 10° NW 21:31:27 38° NNW 21:31:27 38° NNW visible
25 Dec 6.9 01:51:36 31° SSE 01:51:36 31° SSE 01:58:46 10° SE visible
25 Dec 7.0 03:46:24 19° SW 03:53:02 26° SSW 04:03:08 10° SE visible
25 Dec 7.2 05:51:41 10° SW 06:00:41 21° S 06:08:04 10° SE visible
25 Dec 5.4 20:21:35 10° NNW 20:28:05 32° NNE 20:30:17 29° NE visible
25 Dec 6.4 22:22:37 10° WNW 22:25:11 24° WNW 22:25:11 24° WNW visible
26 Dec 7.4 00:49:07 16° SE 00:49:07 16° SE 00:51:19 10° SE visible
26 Dec 6.8 02:43:55 30° SSW 02:44:32 30° SSW 02:56:09 10° SE visible
26 Dec 7.2 04:42:25 10° SW 04:52:29 22° S 05:01:15 10° SE visible
26 Dec 5.6 19:17:25 10° NNW 19:21:53 19° NNE 19:27:36 10° ENE visible
26 Dec 4.9 21:17:20 10° NW 21:24:08 58° N 21:24:08 58° N visible
27 Dec 7.0 01:41:27 28° SSE 01:41:27 28° SSE 01:48:46 10° SE visible
27 Dec 7.1 03:36:15 16° SW 03:43:58 24° S 03:54:05 10° SE visible
27 Dec 7.1 05:41:44 10° SW 05:51:52 24° S 06:00:08 10° SE visible
27 Dec 5.0 20:12:33 10° NW 20:18:47 39° NNE 20:23:12 25° ENE visible
27 Dec 5.8 22:13:46 10° WNW 22:18:08 39° WNW 22:18:08 39° WNW visible
28 Dec 7.4 00:39:00 15° SE 00:39:00 15° SE 00:41:04 10° SE visible
28 Dec 7.0 02:33:48 27° SSW 02:35:20 27° S 02:46:34 10° SE visible
28 Dec 7.2 04:33:00 10° SW 04:43:34 24° S 04:52:54 10° SE visible
28 Dec 4.6 21:08:27 10° WNW 21:15:42 75° NNE 21:17:21 62° E visible
28 Dec 6.9 23:11:01 10° W 23:12:17 16° W 23:12:17 16° W visible
29 Dec 7.1 01:31:23 26° SSE 01:31:23 26° SSE 01:38:46 10° SE visible
29 Dec 7.2 03:26:11 14° SW 03:34:57 24° S 03:45:12 10° SE visible
29 Dec 7.1 05:31:39 10° SW 05:42:54 28° S 05:52:08 10° ESE visible
29 Dec 4.6 20:03:36 10° NW 20:09:32 49° NNE 20:16:41 16° E visible
29 Dec 5.2 22:05:07 10° WNW 22:11:38 58° WSW 22:11:38 58° WSW visible
30 Dec 7.5 00:29:02 14° SE 00:29:02 14° SE 00:30:46 10° SE visible
30 Dec 7.1 02:23:51 24° SSW 02:26:16 25° S 02:37:07 10° SE visible
30 Dec 7.2 04:23:24 10° SW 04:34:34 26° S 04:44:36 10° ESE visible
30 Dec 6.7 06:29:28 10° SW 06:41:42 39° SSE 06:50:52 10° E visible
30 Dec 4.5 20:59:44 10° WNW 21:06:26 85° SSW 21:11:04 35° ESE visible
30 Dec 6.5 23:02:39 10° W 23:06:02 25° WSW 23:06:02 25° WSW visible
